Location: The Jewett Observatory
(46.7288°N, 117.1525°W)
Time: 12:46:15
(UTC-07:00)

Cosmos 1633 - Visible Passes

Search period start: 07 July 2015 00:00
Search period end: 17 July 2015 00:00
Orbit: 482 x 504 km, 82.5° (Epoch: 07 July)

Date Brightness Start Highest point End Pass type
(mag) Time Alt. Az. Time Alt. Az. Time Alt. Az.
07 Jul 2.5 02:56:58 29° S 02:58:47 89° W 03:02:32 10° N visible
08 Jul 2.9 02:35:13 32° SSE 02:36:44 61° E 02:40:25 10° NNE visible
08 Jul 5.0 04:11:10 10° W 04:12:28 11° WNW 04:13:37 10° NW visible
09 Jul 3.6 02:13:27 30° SE 02:14:41 40° E 02:18:13 10° NNE visible
09 Jul 4.7 03:48:00 11° WSW 03:50:12 16° WNW 03:52:28 10° NNW visible
10 Jul 4.1 01:51:39 24° ESE 01:52:39 27° E 01:55:52 10° NNE visible
10 Jul 4.3 03:26:12 16° WSW 03:27:57 22° WNW 03:30:51 10° NNW visible
11 Jul 4.6 01:29:50 18° ESE 01:30:38 19° E 01:33:23 10° NE visible
11 Jul 3.8 03:04:23 24° WSW 03:05:44 30° WNW 03:09:03 10° N visible
12 Jul 5.0 01:07:59 13° E 01:08:37 14° E 01:10:36 10° NE visible
12 Jul 3.2 02:42:32 35° WSW 02:43:32 44° WNW 02:47:05 10° N visible
13 Jul 2.6 02:20:40 52° SW 02:21:21 67° W 02:25:03 10° N visible
14 Jul 2.5 01:58:46 67° SSE 01:59:12 81° E 02:02:55 10° N visible
15 Jul 2.9 01:36:51 52° ESE 01:37:04 53° E 01:40:41 10° NNE visible
15 Jul 4.9 03:11:23 11° W 03:12:44 12° WNW 03:14:17 10° NW visible
16 Jul 3.6 01:14:55 35° E 01:14:57 35° E 01:18:21 10° NNE visible
16 Jul 4.6 02:49:27 16° W 02:50:23 17° WNW 02:52:52 10° NNW visible
